Location: Alpine
(43.1636°N, 111.0180°W)
Time: 04:40:14
(UTC+00:00)

Tiros 1 despin weight - Pass Details

Date: 31 May 2022
Orbit: 591 x 639 km, 48.2° (Epoch: 30 June)

Event Time Altitude Azimuth Distance (km) Brightness Sun altitude
Rises 06:02:45 0° 290° (WNW) 2,842 ? -22.4°
Reaches altitude 10° 06:05:16 10° 279° (W) 1,930 ? -22.6°
Enters shadow 06:08:03 26° 244° (WSW) 1,182 ? -22.7°
Maximum altitude 06:09:04 29° 220° (SW) 1,102 - -22.8°
Drops below altitude 10° 06:12:50 10° 160° (SSE) 1,910 - -23.0°
Sets 06:15:19 0° 149° (SSE) 2,806 - -23.1°
